Location: Ash Swamp
(41.5170°N, 74.6157°W)
Time: 17:23:16
(UTC+00:00)

Cosmos 2058 - Pass Details

Date: 14 July 2020
Orbit: 561 x 584 km, 82.5° (Epoch: 04 August)

Event Time Altitude Azimuth Distance (km) Brightness Sun altitude
Exits shadow 02:33:45 21° 199° (SSW) 1,290 4.4 -17.9°
Maximum altitude 02:36:23 68° 279° (W) 616 3.1 -18.2°
Drops below altitude 10° 02:40:29 10° 3° (N) 1,874 6.3 -18.6°
Sets 02:42:41 0° 6° (N) 2,772 7.2 -18.8°
